Content
SEND FEEDBACK

Daily
Averages
Monthly
Summary
United States of America

WHITEROCKS, UTAH


Home > North America > United States > Utah
Elevation: 7013 feet     Latitude: 40 33N     Longitude: 109 57W

WEATHER
 
SELECT A DAY
Number of Records: 170,644;   Date Range: 1/1/95 - 12/17/14
 
SHARE

PRINT THIS DATA

[ ← Previous Day ]
WEATHER ALMANAC - FEBRUARY 13, 2013
[ Next Day → ]
[ °C ]   °F
Weather ElementAverageHighLow
Temperature11.3 °F19.9 °F (4:53 pm)1.9 °F (6:53 am)
Dewpoint5.5 °F10 °F (3:53 pm)-2 °F (6:53 am)
Humidity78.2 %92 % (8:53 am)65 % (4:53 pm)
Barometer30.45 in30.55 in (7:53 am)30.38 in (4:53 pm)
Wind Speed1.6 mph6.9 mph (12:53 pm)
Weather ElementAverage
Visibility7.4 mi
Wind DirectionNNE (33.2 °)

Weather ElementTotal
Precipitation---
Heating Degree Days54.1 (Base 65)
Averaged from 22 records on February 13, 2013
WEATHER CONDITIONS BREAKOUT
WIND DIRECTION BREAKOUT
WEATHER BY HOUR - FEBRUARY 13, 2013
[ °C ]   °F
Local TimeTemperatureDewpointHumidityBarometerVisibilityWind DirectionWind SpeedGust SpeedPrecipitationEventsConditions
1:53 AM9.0 °F5.0 °F84 %30.48 in8.0 miCalmPartly Cloudy
2:53 AM7.0 °F3.0 °F84 %30.47 in5.0 miCalmClear
3:53 AM3.0 °F-0.9 °F84 %30.48 in5.0 miCalmClear
5:53 AM5.0 °F0.0 °F80 %30.50 in9.0 miCalmClear
6:53 AM1.9 °F-2.0 °F83 %30.51 in8.0 miCalmClear
7:53 AM3.9 °F0.0 °F84 %30.55 in7.0 miCalmClear
8:53 AM8.1 °F6.1 °F92 %30.53 in5.0 miCalmClear
9:53 AM12.9 °F8.1 °F81 %30.52 in6.0 miCalmHaze
10:53 AM10.0 °F5.0 °F80 %30.53 in6.0 miEast (100°)5.8 mphHaze
11:53 AM14.0 °F7.0 °F74 %30.48 in8.0 miCalmClear
12:53 PM16.0 °F8.1 °F71 %30.43 in7.0 miEast (80°)6.9 mphClear
1:53 PM17.1 °F9.0 °F71 %30.43 in9.0 miENE (70°)4.6 mphClear
2:53 PM18.0 °F9.0 °F68 %30.40 in9.0 miCalmClear
3:53 PM19.0 °F10.0 °F68 %30.40 in10.0 miSouth (180°)3.5 mphClear
4:53 PM19.9 °F10.0 °F65 %30.38 in9.0 miEast (80°)3.5 mphClear
5:53 PM18.0 °F9.0 °F68 %30.38 in8.0 miCalmClear
6:53 PM14.0 °F7.0 °F74 %30.42 in8.0 miESE (120°)3.5 mphClear
7:53 PM10.9 °F6.1 °F81 %30.43 in7.0 miENE (70°)3.5 mphClear
8:53 PM9.0 °F5.0 °F84 %30.43 in7.0 miNNE (30°)3.5 mphClear
9:53 PM10.0 °F6.1 °F84 %30.41 in7.0 miCalmClear
10:53 PM10.0 °F5.0 °F80 %30.43 in6.0 miCalmHaze
11:53 PM10.9 °F6.1 °F81 %30.41 in8.0 miCalmClear
Hourly data recorded from KVEL, located miles away from Whiterocks, Utah







STORIES FROM OUR PARTNERS